Tracking 22879 objects as of 23-Apr-2021
HD Live streaming from Space Station
objects crossing your sky now

FLOCK 2K 48

Track FLOCK 2K 48 now!
10-day predictions
FLOCK 2K 48 is classified as:


NORAD ID: 42855
Int'l Code: 2017-042AG
Perigee: 423.2 km
Apogee: 430.9 km
Inclination: 96.9 °
Period: 93.0 minutes
Semi major axis: 6798 km
RCS: Unknown
Launch date: July 14, 2017
Source: United States (US)
Launch site: TYURATAM MISSILE AND SPACE COMPLEX (TTMTR)
aabbcc
Your satellite tracking list
Your tracking list is empty




NASA's NSSDC Master Catalog

Two Line Element Set (TLE):
1 42855U 17042AG  21112.56278108  .00017549  00000-0  32664-3 0  9992
2 42855  96.8548 330.2682 0005667 278.0706  81.9903 15.48894943211867
Source of the keplerian elements: AFSPC